VRG5156 SBTE-SYCJ

Flight info

Callsign VRG5156
Flight time 2h 41m
Altitude 36000
Route ANPON DCT OTONI UG449 ZY UG443 GEBON
Aircraft B738/M-SDE2E3FGHIRWXY/LB1

Departure

Time 2026-04-20 11:20
Airport Senador Petrônio Portela Airport (SBTE)

Arrival

Time 2026-04-20 14:02
Airport Cheddi Jagan International Airport (SYCJ)
Time Latitude Longitude Altitude Speed Heading
2026-04-20 11:03 -5.06331 -42.82183 219 ft 0 kts 81°
2026-04-20 11:11 -5.06332 -42.82184 233 ft 2 kts 81°
2026-04-20 11:11 -5.06330 -42.82204 219 ft 4 kts 136°
2026-04-20 11:11 -5.06308 -42.82213 219 ft 3 kts 176°
2026-04-20 11:11 -5.06305 -42.82213 219 ft 2 kts 177°
2026-04-20 11:17 -5.06316 -42.82212 219 ft 5 kts 177°
2026-04-20 11:17 -5.06376 -42.82209 220 ft 12 kts 175°
2026-04-20 11:18 -5.06483 -42.82200 221 ft 18 kts 174°
2026-04-20 11:18 -5.06603 -42.82248 223 ft 19 kts 218°
2026-04-20 11:18 -5.06729 -42.82292 224 ft 21 kts 181°
2026-04-20 11:18 -5.06895 -42.82282 225 ft 23 kts 180°
2026-04-20 11:19 -5.06973 -42.82291 228 ft 10 kts 119°
2026-04-20 11:19 -5.06965 -42.82268 226 ft 1 kts
2026-04-20 11:19 -5.06946 -42.82274 225 ft 6 kts 347°
2026-04-20 11:19 -5.06913 -42.82279 225 ft 6 kts 354°
2026-04-20 11:20 -5.06648 -42.82307 223 ft 76 kts 354°
2026-04-20 11:20 -5.05889 -42.82385 214 ft 141 kts 354°
2026-04-20 11:20 -5.04778 -42.82497 548 ft 168 kts 353°
2026-04-20 11:20 -5.03592 -42.82634 1230 ft 180 kts 352°
2026-04-20 11:21 -5.02330 -42.82793 1985 ft 184 kts 353°
2026-04-20 11:21 -5.00975 -42.82924 2450 ft 209 kts 355°
2026-04-20 11:21 -4.99434 -42.83088 2665 ft 235 kts 345°
2026-04-20 11:21 -4.98054 -42.83994 3160 ft 246 kts 306°
2026-04-20 11:22 -4.97526 -42.85619 3900 ft 253 kts 266°
2026-04-20 11:22 -4.97766 -42.87354 4973 ft 253 kts 268°
2026-04-20 11:22 -4.97292 -42.89134 5793 ft 282 kts 296°
2026-04-20 11:22 -4.96315 -42.90889 6780 ft 293 kts 301°
2026-04-20 11:23 -4.95249 -42.92637 7850 ft 296 kts 301°
2026-04-20 11:23 -4.94181 -42.94413 8951 ft 298 kts 301°
2026-04-20 11:23 -4.93129 -42.96218 10019 ft 302 kts 301°
2026-04-20 11:23 -4.92073 -42.98082 10671 ft 316 kts 300°
2026-04-20 11:24 -4.90956 -43.00099 10849 ft 344 kts 299°
2026-04-20 11:24 -4.89773 -43.02272 11070 ft 363 kts 299°
2026-04-20 11:24 -4.88559 -43.04528 11586 ft 370 kts 298°
2026-04-20 11:24 -4.87357 -43.06778 12260 ft 372 kts 298°
2026-04-20 11:25 -4.86135 -43.09075 12925 ft 375 kts 298°
2026-04-20 11:25 -4.84903 -43.11393 13556 ft 378 kts 298°
2026-04-20 11:25 -4.83660 -43.13735 14118 ft 382 kts 298°
2026-04-20 11:25 -4.82406 -43.16098 14666 ft 385 kts 298°
2026-04-20 11:26 -4.81140 -43.18481 15214 ft 389 kts 298°
2026-04-20 11:26 -4.79862 -43.20889 15748 ft 392 kts 298°
2026-04-20 11:26 -4.78573 -43.23315 16277 ft 396 kts 298°
2026-04-20 11:26 -4.77273 -43.25762 16804 ft 399 kts 298°
2026-04-20 11:27 -4.75964 -43.28227 17314 ft 403 kts 298°
2026-04-20 11:27 -4.74642 -43.30715 17820 ft 406 kts 298°
2026-04-20 11:27 -4.73311 -43.33221 18313 ft 409 kts 298°
2026-04-20 11:27 -4.71968 -43.35747 18736 ft 412 kts 298°
2026-04-20 11:28 -4.70613 -43.38288 19177 ft 414 kts 300°
2026-04-20 11:28 -4.69027 -43.40708 19594 ft 416 kts 308°
2026-04-20 11:28 -4.67234 -43.42997 20022 ft 418 kts 310°
2026-04-20 11:28 -4.65374 -43.45252 20430 ft 421 kts 310°
2026-04-20 11:29 -4.63486 -43.47515 20820 ft 424 kts 310°
2026-04-20 11:29 -4.61617 -43.49765 21206 ft 427 kts 310°
2026-04-20 11:29 -4.59699 -43.52098 21603 ft 429 kts 310°
2026-04-20 11:29 -4.57826 -43.54398 21992 ft 432 kts 309°
2026-04-20 11:30 -4.55933 -43.56739 22378 ft 434 kts 309°
2026-04-20 11:30 -4.54031 -43.59101 22756 ft 437 kts 309°
2026-04-20 11:30 -4.52121 -43.61481 23157 ft 440 kts 309°
2026-04-20 11:30 -4.50198 -43.63877 23613 ft 442 kts 309°
2026-04-20 11:31 -4.48268 -43.66285 23910 ft 444 kts 309°
2026-04-20 11:31 -4.46328 -43.68704 24202 ft 446 kts 309°
2026-04-20 11:31 -4.44383 -43.71129 24489 ft 448 kts 309°
2026-04-20 11:31 -4.42429 -43.73565 24783 ft 449 kts 309°
2026-04-20 11:32 -4.40465 -43.76012 25082 ft 451 kts 309°
2026-04-20 11:32 -4.38497 -43.78464 25358 ft 452 kts 309°
2026-04-20 11:32 -4.36524 -43.80922 25632 ft 454 kts 309°
2026-04-20 11:32 -4.34541 -43.83392 25905 ft 456 kts 309°
2026-04-20 11:33 -4.32550 -43.85871 26180 ft 457 kts 309°
2026-04-20 11:33 -4.30553 -43.88358 26440 ft 459 kts 309°
2026-04-20 11:33 -4.28547 -43.90857 26698 ft 461 kts 309°
2026-04-20 11:33 -4.26535 -43.93362 26951 ft 462 kts 309°
2026-04-20 11:34 -4.24516 -43.95875 27201 ft 464 kts 309°
2026-04-20 11:34 -4.22486 -43.98403 27448 ft 466 kts 309°
2026-04-20 11:34 -4.20450 -44.00936 27690 ft 467 kts 309°
2026-04-20 11:34 -4.18436 -44.03444 27911 ft 469 kts 309°
2026-04-20 11:35 -4.16385 -44.05996 28136 ft 471 kts 309°
2026-04-20 11:35 -4.14329 -44.08554 28360 ft 473 kts 309°
2026-04-20 11:35 -4.12266 -44.11121 28575 ft 474 kts 309°
2026-04-20 11:35 -4.10193 -44.13701 28788 ft 476 kts 309°
2026-04-20 11:36 -4.08114 -44.16288 28994 ft 478 kts 309°
2026-04-20 11:36 -4.06029 -44.18881 29209 ft 479 kts 309°
2026-04-20 11:36 -4.03931 -44.21491 29405 ft 481 kts 309°
2026-04-20 11:36 -4.01831 -44.24102 29605 ft 482 kts 309°
2026-04-20 11:37 -3.99724 -44.26723 29798 ft 484 kts 309°
2026-04-20 11:37 -3.95560 -44.31901 30228 ft 484 kts 309°
2026-04-20 11:37 -3.93450 -44.34525 30502 ft 483 kts 309°
2026-04-20 11:38 -3.91346 -44.37140 30835 ft 481 kts 309°
2026-04-20 11:38 -3.89250 -44.39746 31146 ft 480 kts 309°
2026-04-20 11:38 -3.87157 -44.42348 31466 ft 479 kts 309°
2026-04-20 11:38 -3.85070 -44.44942 31788 ft 477 kts 309°
2026-04-20 11:39 -3.82991 -44.47526 32088 ft 476 kts 309°
2026-04-20 11:39 -3.80914 -44.50106 32360 ft 475 kts 309°
2026-04-20 11:39 -3.78842 -44.52681 32619 ft 475 kts 309°
2026-04-20 11:39 -3.76773 -44.55252 32889 ft 474 kts 309°
2026-04-20 11:40 -3.74732 -44.57787 33169 ft 473 kts 309°
2026-04-20 11:40 -3.72670 -44.60348 33454 ft 472 kts 308°
2026-04-20 11:40 -3.70609 -44.62908 33759 ft 471 kts 308°
2026-04-20 11:40 -3.68558 -44.65455 34058 ft 470 kts 308°
2026-04-20 11:41 -3.66509 -44.68001 34274 ft 470 kts 308°
2026-04-20 11:41 -3.64455 -44.70551 34442 ft 471 kts 308°
2026-04-20 11:41 -3.62393 -44.73111 34634 ft 471 kts 308°
2026-04-20 11:41 -3.60336 -44.75665 34843 ft 471 kts 308°
2026-04-20 11:42 -3.58280 -44.78218 35065 ft 471 kts 308°
2026-04-20 11:42 -3.56226 -44.80768 35290 ft 470 kts 308°
2026-04-20 11:42 -3.54172 -44.83318 35501 ft 470 kts 308°
2026-04-20 11:42 -3.52121 -44.85863 35717 ft 470 kts 308°
2026-04-20 11:43 -3.50097 -44.88376 35924 ft 469 kts 308°
2026-04-20 11:43 -3.48039 -44.90930 35967 ft 472 kts 308°
2026-04-20 11:43 -3.43917 -44.96045 35976 ft 470 kts 308°
2026-04-20 11:44 -3.40484 -45.00304 35976 ft 468 kts 308°
2026-04-20 11:44 -3.36412 -45.05356 35979 ft 466 kts 308°
2026-04-20 11:45 -3.32372 -45.10366 35978 ft 464 kts 308°
2026-04-20 11:45 -3.28324 -45.15387 35982 ft 463 kts 308°
2026-04-20 11:46 -3.24273 -45.20410 35980 ft 464 kts 308°
2026-04-20 11:46 -3.20209 -45.25449 35980 ft 466 kts 308°
2026-04-20 11:47 -3.16136 -45.30499 35981 ft 467 kts 308°
2026-04-20 11:47 -3.12050 -45.35563 35980 ft 468 kts 308°
2026-04-20 11:48 -3.07954 -45.40639 35976 ft 470 kts 308°
2026-04-20 11:48 -3.03844 -45.45732 35981 ft 470 kts 308°
2026-04-20 11:49 -2.99734 -45.50825 35979 ft 471 kts 308°
2026-04-20 11:49 -2.95616 -45.55926 35976 ft 471 kts 308°
2026-04-20 11:50 -2.91500 -45.61024 35976 ft 470 kts 308°
2026-04-20 11:50 -2.87391 -45.66112 35975 ft 470 kts 308°
2026-04-20 11:51 -2.83291 -45.71189 35972 ft 469 kts 308°
2026-04-20 11:51 -2.79198 -45.76257 35974 ft 468 kts 308°
2026-04-20 11:52 -2.75116 -45.81312 35974 ft 466 kts 308°
2026-04-20 11:52 -2.71039 -45.86358 35977 ft 466 kts 308°
2026-04-20 11:53 -2.66999 -45.91359 35974 ft 465 kts 308°
2026-04-20 11:53 -2.62936 -45.96387 35976 ft 465 kts 308°
2026-04-20 11:54 -2.58873 -46.01415 35977 ft 465 kts 308°
2026-04-20 11:54 -2.54810 -46.06443 35976 ft 465 kts 308°
2026-04-20 11:55 -2.50742 -46.11475 35979 ft 465 kts 308°
2026-04-20 11:55 -2.46672 -46.16510 35978 ft 465 kts 308°
2026-04-20 11:56 -2.42598 -46.21549 35974 ft 466 kts 308°
2026-04-20 11:56 -2.38521 -46.26591 35979 ft 466 kts 308°
2026-04-20 11:57 -2.34441 -46.31638 35979 ft 467 kts 308°
2026-04-20 11:57 -2.30354 -46.36691 35981 ft 468 kts 308°
2026-04-20 11:58 -2.26258 -46.41755 35976 ft 468 kts 308°
2026-04-20 11:58 -2.22164 -46.46816 35982 ft 468 kts 308°
2026-04-20 11:59 -2.18069 -46.51878 35977 ft 469 kts 308°
2026-04-20 11:59 -2.13968 -46.56947 35981 ft 469 kts 308°
2026-04-20 12:00 -2.09867 -46.62015 35979 ft 469 kts 308°
2026-04-20 12:00 -2.05763 -46.67088 35978 ft 469 kts 308°
2026-04-20 12:01 -2.01681 -46.72132 35977 ft 469 kts 308°
2026-04-20 12:01 -1.97575 -46.77204 35978 ft 469 kts 308°
2026-04-20 12:02 -1.93472 -46.82273 35982 ft 469 kts 308°
2026-04-20 12:02 -1.89376 -46.87334 35982 ft 469 kts 308°
2026-04-20 12:03 -1.85271 -46.92404 35979 ft 469 kts 308°
2026-04-20 12:03 -1.81168 -46.97472 35981 ft 469 kts 308°
2026-04-20 12:04 -1.77067 -47.02537 35986 ft 469 kts 308°
2026-04-20 12:04 -1.72961 -47.07607 35982 ft 469 kts 309°
2026-04-20 12:05 -1.68881 -47.12646 35985 ft 469 kts 309°
2026-04-20 12:05 -1.64775 -47.17717 35986 ft 469 kts 309°
2026-04-20 12:06 -1.60669 -47.22787 35979 ft 469 kts 309°
2026-04-20 12:06 -1.56553 -47.27867 35981 ft 469 kts 309°
2026-04-20 12:07 -1.52453 -47.32929 35979 ft 469 kts 309°
2026-04-20 12:07 -1.48348 -47.37996 35980 ft 468 kts 309°
2026-04-20 12:08 -1.44247 -47.43058 35976 ft 468 kts 309°
2026-04-20 12:08 -1.40148 -47.48118 35983 ft 468 kts 309°
2026-04-20 12:09 -1.36075 -47.53145 35981 ft 468 kts 309°
2026-04-20 12:09 -1.31979 -47.58200 35980 ft 469 kts 309°
2026-04-20 12:10 -1.27869 -47.63271 35976 ft 469 kts 309°
2026-04-20 12:10 -1.23759 -47.68343 35985 ft 470 kts 309°
2026-04-20 12:11 -1.19644 -47.73421 35977 ft 470 kts 309°
2026-04-20 12:11 -1.15526 -47.78502 35980 ft 471 kts 309°
2026-04-20 12:12 -1.11402 -47.83590 35973 ft 471 kts 309°
2026-04-20 12:12 -1.07276 -47.88680 35975 ft 471 kts 309°
2026-04-20 12:13 -1.03172 -47.93743 35976 ft 471 kts 309°
2026-04-20 12:13 -0.99048 -47.98831 35974 ft 471 kts 309°
2026-04-20 12:14 -0.94920 -48.03922 35972 ft 470 kts 309°
2026-04-20 12:14 -0.90807 -48.08997 35974 ft 470 kts 309°
2026-04-20 12:15 -0.86693 -48.14071 35973 ft 469 kts 309°
2026-04-20 12:15 -0.82586 -48.19136 35971 ft 469 kts 309°
2026-04-20 12:16 -0.78484 -48.24196 35971 ft 468 kts 309°
2026-04-20 12:16 -0.74387 -48.29249 35970 ft 468 kts 309°
2026-04-20 12:17 -0.70290 -48.34302 35971 ft 468 kts 309°
2026-04-20 12:17 -0.66193 -48.39354 35968 ft 468 kts 309°
2026-04-20 12:18 -0.62098 -48.44404 35970 ft 468 kts 309°
2026-04-20 12:18 -0.58030 -48.49420 35971 ft 468 kts 309°
2026-04-20 12:19 -0.53926 -48.54482 35972 ft 469 kts 309°
2026-04-20 12:19 -0.49817 -48.59549 35967 ft 469 kts 309°
2026-04-20 12:20 -0.45713 -48.64609 35973 ft 469 kts 309°
2026-04-20 12:20 -0.41598 -48.69683 35970 ft 469 kts 309°
2026-04-20 12:21 -0.37489 -48.74749 35971 ft 469 kts 309°
2026-04-20 12:21 -0.33376 -48.79821 35969 ft 469 kts 309°
2026-04-20 12:22 -0.29267 -48.84888 35968 ft 469 kts 309°
2026-04-20 12:22 -0.25165 -48.89945 35969 ft 468 kts 309°
2026-04-20 12:23 -0.21091 -48.94968 35969 ft 468 kts 309°
2026-04-20 12:23 -0.16996 -49.00017 35972 ft 467 kts 309°
2026-04-20 12:24 -0.12909 -49.05056 35968 ft 467 kts 309°
2026-04-20 12:24 -0.08822 -49.10095 35973 ft 466 kts 309°
2026-04-20 12:25 -0.04739 -49.15129 35974 ft 466 kts 309°
2026-04-20 12:25 -0.00657 -49.20162 35969 ft 466 kts 309°
2026-04-20 12:26 0.03423 -49.25192 35971 ft 466 kts 309°
2026-04-20 12:26 0.07499 -49.30217 35970 ft 465 kts 309°
2026-04-20 12:27 0.10887 -49.34395 35970 ft 465 kts 309°
2026-04-20 12:27 0.15646 -49.40263 35972 ft 465 kts 309°
2026-04-20 12:28 0.19695 -49.45254 35975 ft 465 kts 309°
2026-04-20 12:28 0.23771 -49.50280 35974 ft 464 kts 309°
2026-04-20 12:29 0.27833 -49.55288 35972 ft 464 kts 309°
2026-04-20 12:29 0.31899 -49.60302 35972 ft 464 kts 309°
2026-04-20 12:30 0.35955 -49.65303 35967 ft 463 kts 309°
2026-04-20 12:30 0.39328 -49.69462 35972 ft 463 kts 309°
2026-04-20 12:31 0.43382 -49.74460 35971 ft 463 kts 309°
2026-04-20 12:31 0.47433 -49.79457 35971 ft 463 kts 309°
2026-04-20 12:32 0.51481 -49.84448 35976 ft 463 kts 309°
2026-04-20 12:32 0.55541 -49.89454 35975 ft 463 kts 309°
2026-04-20 12:33 0.59571 -49.94424 35974 ft 464 kts 309°
2026-04-20 12:33 0.63636 -49.99437 35977 ft 465 kts 309°
2026-04-20 12:34 0.67712 -50.04463 35978 ft 466 kts 309°
2026-04-20 12:34 0.71800 -50.09504 35976 ft 467 kts 309°
2026-04-20 12:35 0.75897 -50.14558 35977 ft 469 kts 309°
2026-04-20 12:35 0.80010 -50.19630 35979 ft 470 kts 310°
2026-04-20 12:36 0.84136 -50.24719 35980 ft 471 kts 310°
2026-04-20 12:36 0.88268 -50.29815 35977 ft 473 kts 309°
2026-04-20 12:37 0.92416 -50.34932 35985 ft 474 kts 310°
2026-04-20 12:37 0.96559 -50.40043 35983 ft 474 kts 309°
2026-04-20 12:38 1.00712 -50.45166 35986 ft 474 kts 309°
2026-04-20 12:38 1.04865 -50.50289 35980 ft 474 kts 309°
2026-04-20 12:39 1.11064 -50.57936 35985 ft 473 kts 309°
2026-04-20 12:40 1.15203 -50.63043 35989 ft 472 kts 309°
2026-04-20 12:40 1.19338 -50.68146 35983 ft 472 kts 309°
2026-04-20 12:41 1.23468 -50.73241 35984 ft 471 kts 309°
2026-04-20 12:41 1.27588 -50.78325 35988 ft 470 kts 309°
2026-04-20 12:42 1.31704 -50.83405 35983 ft 470 kts 309°
2026-04-20 12:42 1.35818 -50.88482 35983 ft 469 kts 309°
2026-04-20 12:43 1.39906 -50.93527 35990 ft 469 kts 309°
2026-04-20 12:43 1.44015 -50.98598 35984 ft 469 kts 309°
2026-04-20 12:44 1.48125 -51.03672 35988 ft 469 kts 309°
2026-04-20 12:44 1.52231 -51.08741 35987 ft 469 kts 309°
2026-04-20 12:45 1.56342 -51.13816 35990 ft 470 kts 309°
2026-04-20 12:45 1.60451 -51.18889 35992 ft 470 kts 309°
2026-04-20 12:46 1.64564 -51.23968 35991 ft 470 kts 309°
2026-04-20 12:46 1.68683 -51.29053 35995 ft 471 kts 309°
2026-04-20 12:47 1.72804 -51.34143 35995 ft 471 kts 309°
2026-04-20 12:47 1.76932 -51.39241 35992 ft 472 kts 309°
2026-04-20 12:48 1.81062 -51.44341 35996 ft 472 kts 309°
2026-04-20 12:48 1.85192 -51.49442 35995 ft 472 kts 309°
2026-04-20 12:49 1.89326 -51.54549 35994 ft 472 kts 309°
2026-04-20 12:49 1.93434 -51.59624 35997 ft 473 kts 309°
2026-04-20 12:50 1.97573 -51.64737 35999 ft 473 kts 309°
2026-04-20 12:50 2.01710 -51.69849 35997 ft 473 kts 309°
2026-04-20 12:51 2.05846 -51.74960 36004 ft 473 kts 309°
2026-04-20 12:51 2.09985 -51.80074 36002 ft 473 kts 309°
2026-04-20 12:52 2.14116 -51.85181 36003 ft 472 kts 309°
2026-04-20 12:52 2.18248 -51.90288 36003 ft 472 kts 309°
2026-04-20 12:53 2.22378 -51.95393 36003 ft 472 kts 309°
2026-04-20 12:53 2.26508 -52.00499 36004 ft 472 kts 309°
2026-04-20 12:54 2.30632 -52.05598 36001 ft 472 kts 309°
2026-04-20 12:54 2.34731 -52.10667 36002 ft 472 kts 309°
2026-04-20 12:55 2.38861 -52.15774 36000 ft 472 kts 309°
2026-04-20 12:55 2.42991 -52.20883 36000 ft 472 kts 309°
2026-04-20 12:56 2.47128 -52.26000 35999 ft 472 kts 309°
2026-04-20 12:56 2.51240 -52.31087 35998 ft 473 kts 309°
2026-04-20 12:57 2.55377 -52.36206 35998 ft 473 kts 309°
2026-04-20 12:57 2.59513 -52.41325 35994 ft 473 kts 309°
2026-04-20 12:58 2.63654 -52.46451 35994 ft 474 kts 309°
2026-04-20 12:58 2.67892 -52.51490 35989 ft 474 kts 314°
2026-04-20 12:59 2.72625 -52.56080 35994 ft 474 kts 317°
2026-04-20 12:59 2.77436 -52.60582 35997 ft 474 kts 317°
2026-04-20 13:00 2.82217 -52.65115 35996 ft 474 kts 316°
2026-04-20 13:00 2.86975 -52.69679 35995 ft 473 kts 316°
2026-04-20 13:01 2.91693 -52.74222 35995 ft 473 kts 316°
2026-04-20 13:01 2.96439 -52.78792 35993 ft 473 kts 316°
2026-04-20 13:02 3.01180 -52.83356 35994 ft 473 kts 316°
2026-04-20 13:02 3.05931 -52.87928 35990 ft 473 kts 316°
2026-04-20 13:03 3.10675 -52.92494 35996 ft 473 kts 316°
2026-04-20 13:03 3.15420 -52.97062 35999 ft 473 kts 316°
2026-04-20 13:04 3.20134 -53.01601 36005 ft 473 kts 316°
2026-04-20 13:04 3.24907 -53.06197 35993 ft 473 kts 316°
2026-04-20 13:05 3.29644 -53.10759 36000 ft 473 kts 316°
2026-04-20 13:05 3.34361 -53.15302 36000 ft 473 kts 316°
2026-04-20 13:06 3.39098 -53.19866 35992 ft 473 kts 316°
2026-04-20 13:06 3.43838 -53.24433 36009 ft 473 kts 316°
2026-04-20 13:07 3.48580 -53.29003 35995 ft 473 kts 316°
2026-04-20 13:07 3.53324 -53.33575 36001 ft 473 kts 316°
2026-04-20 13:08 3.58060 -53.38141 35999 ft 472 kts 316°
2026-04-20 13:08 3.62787 -53.42699 36001 ft 472 kts 316°
2026-04-20 13:09 3.67482 -53.47227 36002 ft 471 kts 315°
2026-04-20 13:09 3.72199 -53.51783 36007 ft 472 kts 315°
2026-04-20 13:10 3.76917 -53.56344 36001 ft 471 kts 315°
2026-04-20 13:10 3.81641 -53.60912 36000 ft 471 kts 315°
2026-04-20 13:11 3.86354 -53.65471 36004 ft 470 kts 315°
2026-04-20 13:11 3.91067 -53.70029 36011 ft 472 kts 315°
2026-04-20 13:12 3.95791 -53.74599 35995 ft 473 kts 315°
2026-04-20 13:12 4.00491 -53.79147 36000 ft 472 kts 315°
2026-04-20 13:13 4.05211 -53.83715 36002 ft 471 kts 315°
2026-04-20 13:13 4.09891 -53.88244 36001 ft 471 kts 315°
2026-04-20 13:14 4.14605 -53.92807 35999 ft 471 kts 315°
2026-04-20 13:14 4.19312 -53.97365 36003 ft 471 kts 315°
2026-04-20 13:15 4.24018 -54.01922 36004 ft 471 kts 315°
2026-04-20 13:15 4.28728 -54.06484 36000 ft 471 kts 315°
2026-04-20 13:16 4.33441 -54.11050 35999 ft 471 kts 315°
2026-04-20 13:16 4.38156 -54.15619 36004 ft 472 kts 315°
2026-04-20 13:17 4.42881 -54.20198 36002 ft 473 kts 316°
2026-04-20 13:17 4.47619 -54.24791 36000 ft 474 kts 316°
2026-04-20 13:18 4.52326 -54.29354 36006 ft 474 kts 316°
2026-04-20 13:18 4.57070 -54.33955 36003 ft 475 kts 316°
2026-04-20 13:19 4.61823 -54.38566 36003 ft 476 kts 316°
2026-04-20 13:19 4.66585 -54.43186 36004 ft 477 kts 316°
2026-04-20 13:20 4.71378 -54.47791 36004 ft 477 kts 316°
2026-04-20 13:20 4.76188 -54.52379 36004 ft 478 kts 317°
2026-04-20 13:21 4.80196 -54.56204 36004 ft 479 kts 317°
2026-04-20 13:21 4.85020 -54.60817 36007 ft 479 kts 317°
2026-04-20 13:22 4.89842 -54.65433 36006 ft 480 kts 317°
2026-04-20 13:22 4.94672 -54.70057 36005 ft 480 kts 317°
2026-04-20 13:23 4.99507 -54.74688 36006 ft 481 kts 317°
2026-04-20 13:23 5.04349 -54.79324 36004 ft 481 kts 317°
2026-04-20 13:24 5.09194 -54.83966 36009 ft 481 kts 317°
2026-04-20 13:24 5.14040 -54.88609 36002 ft 482 kts 317°
2026-04-20 13:25 5.18890 -54.93257 36004 ft 483 kts 317°
2026-04-20 13:25 5.23715 -54.97883 35999 ft 483 kts 317°
2026-04-20 13:26 5.28575 -55.02543 35999 ft 484 kts 317°
2026-04-20 13:26 5.33445 -55.07214 35998 ft 484 kts 317°
2026-04-20 13:27 5.38326 -55.11897 35993 ft 485 kts 317°
2026-04-20 13:27 5.43101 -55.16689 35982 ft 487 kts 309°
2026-04-20 13:28 5.46605 -55.22474 35989 ft 487 kts 291°
2026-04-20 13:28 5.48832 -55.28905 35996 ft 487 kts 287°
2026-04-20 13:29 5.50942 -55.35336 36004 ft 488 kts 287°
2026-04-20 13:29 5.53109 -55.41808 35996 ft 489 kts 288°
2026-04-20 13:30 5.55311 -55.48275 35999 ft 490 kts 288°
2026-04-20 13:30 5.57526 -55.54750 35999 ft 491 kts 288°
2026-04-20 13:31 5.59746 -55.61243 36004 ft 492 kts 288°
2026-04-20 13:31 5.61965 -55.67744 35998 ft 492 kts 288°
2026-04-20 13:32 5.64185 -55.74252 35995 ft 493 kts 288°
2026-04-20 13:32 5.66407 -55.80767 35999 ft 493 kts 288°
2026-04-20 13:33 5.68626 -55.87278 35996 ft 493 kts 288°
2026-04-20 13:33 5.70828 -55.93740 35995 ft 492 kts 288°
2026-04-20 13:34 5.73037 -56.00227 36001 ft 491 kts 288°
2026-04-20 13:34 5.75243 -56.06707 35996 ft 489 kts 288°
2026-04-20 13:35 5.77443 -56.13171 35994 ft 488 kts 287°
2026-04-20 13:35 5.79636 -56.19617 35997 ft 487 kts 287°
2026-04-20 13:36 5.81824 -56.26053 35995 ft 486 kts 287°
2026-04-20 13:36 5.84005 -56.32470 35996 ft 485 kts 287°
2026-04-20 13:37 5.86183 -56.38881 35999 ft 485 kts 287°
2026-04-20 13:37 5.88359 -56.45288 35298 ft 491 kts 287°
2026-04-20 13:37 5.89461 -56.48536 34687 ft 491 kts 287°
2026-04-20 13:38 5.90563 -56.51781 34006 ft 492 kts 287°
2026-04-20 13:38 5.91671 -56.55047 33266 ft 493 kts 287°
2026-04-20 13:38 5.92773 -56.58291 32783 ft 488 kts 287°
2026-04-20 13:38 5.93862 -56.61499 32278 ft 483 kts 286°
2026-04-20 13:39 5.94943 -56.64684 31784 ft 479 kts 286°
2026-04-20 13:39 5.96012 -56.67835 31297 ft 475 kts 286°
2026-04-20 13:39 5.97070 -56.70957 30799 ft 471 kts 285°
2026-04-20 13:39 5.98123 -56.74064 30302 ft 467 kts 285°
2026-04-20 13:40 5.99165 -56.77139 29759 ft 463 kts 285°
2026-04-20 13:40 6.00197 -56.80186 29225 ft 458 kts 285°
2026-04-20 13:40 6.01217 -56.83198 28704 ft 453 kts 285°
2026-04-20 13:40 6.02225 -56.86177 28199 ft 447 kts 285°
2026-04-20 13:41 6.03221 -56.89117 27697 ft 442 kts 286°
2026-04-20 13:41 6.04204 -56.92024 27215 ft 437 kts 286°
2026-04-20 13:41 6.05165 -56.94865 26730 ft 432 kts 286°
2026-04-20 13:41 6.06127 -56.97709 26244 ft 428 kts 287°
2026-04-20 13:42 6.07079 -57.00522 25764 ft 423 kts 287°
2026-04-20 13:42 6.08956 -57.06075 24788 ft 415 kts 287°
2026-04-20 13:42 6.09880 -57.08812 24301 ft 412 kts 287°
2026-04-20 13:43 6.10796 -57.11525 23828 ft 408 kts 287°
2026-04-20 13:43 6.11702 -57.14213 23315 ft 405 kts 287°
2026-04-20 13:43 6.12601 -57.16877 22806 ft 400 kts 287°
2026-04-20 13:43 6.13490 -57.19510 22322 ft 395 kts 287°
2026-04-20 13:44 6.14365 -57.22106 21859 ft 390 kts 287°
2026-04-20 13:44 6.15232 -57.24678 21405 ft 386 kts 288°
2026-04-20 13:44 6.16090 -57.27222 20958 ft 382 kts 288°
2026-04-20 13:44 6.16939 -57.29742 20515 ft 379 kts 288°
2026-04-20 13:45 6.17779 -57.32236 20081 ft 375 kts 288°
2026-04-20 13:45 6.18613 -57.34708 19642 ft 372 kts 288°
2026-04-20 13:45 6.19440 -57.37164 19211 ft 370 kts 288°
2026-04-20 13:45 6.20263 -57.39606 18781 ft 368 kts 288°
2026-04-20 13:46 6.21082 -57.42038 18333 ft 366 kts 288°
2026-04-20 13:46 6.21897 -57.44458 17850 ft 365 kts 288°
2026-04-20 13:46 6.22706 -57.46861 17407 ft 361 kts 288°
2026-04-20 13:46 6.23508 -57.49242 16973 ft 359 kts 288°
2026-04-20 13:47 6.24305 -57.51610 16546 ft 356 kts 288°
2026-04-20 13:47 6.25094 -57.53956 16124 ft 353 kts 288°
2026-04-20 13:47 6.25879 -57.56290 15716 ft 351 kts 288°
2026-04-20 13:47 6.26658 -57.58604 15297 ft 349 kts 288°
2026-04-20 13:48 6.27433 -57.60911 14888 ft 348 kts 288°
2026-04-20 13:48 6.28206 -57.63209 14480 ft 347 kts 288°
2026-04-20 13:48 6.28977 -57.65503 14051 ft 346 kts 288°
2026-04-20 13:48 6.29747 -57.67792 13620 ft 346 kts 288°
2026-04-20 13:49 6.30516 -57.70081 13191 ft 345 kts 288°
2026-04-20 13:49 6.31280 -57.72355 12786 ft 343 kts 288°
2026-04-20 13:49 6.32040 -57.74615 12381 ft 341 kts 289°
2026-04-20 13:49 6.32787 -57.76841 11978 ft 339 kts 288°
2026-04-20 13:50 6.33205 -57.79153 11583 ft 337 kts 268°
2026-04-20 13:50 6.33055 -57.81483 11253 ft 333 kts 265°
2026-04-20 13:50 6.32851 -57.83796 10871 ft 332 kts 264°
2026-04-20 13:50 6.32639 -57.86104 10473 ft 332 kts 264°
2026-04-20 13:51 6.32450 -57.88202 10279 ft 325 kts 265°
2026-04-20 13:51 6.32255 -57.90437 10123 ft 316 kts 265°
2026-04-20 13:51 6.32070 -57.92614 9963 ft 309 kts 265°
2026-04-20 13:51 6.31890 -57.94762 9618 ft 307 kts 265°
2026-04-20 13:52 6.31713 -57.96900 9281 ft 306 kts 265°
2026-04-20 13:52 6.31539 -57.99026 8954 ft 305 kts 265°
2026-04-20 13:52 6.31365 -58.01145 8634 ft 303 kts 265°
2026-04-20 13:52 6.31193 -58.03250 8312 ft 302 kts 265°
2026-04-20 13:53 6.31021 -58.05356 7973 ft 303 kts 265°
2026-04-20 13:53 6.30849 -58.07466 7649 ft 303 kts 265°
2026-04-20 13:53 6.30677 -58.09585 7299 ft 304 kts 265°
2026-04-20 13:53 6.30504 -58.11699 6980 ft 303 kts 265°
2026-04-20 13:54 6.30334 -58.13780 6648 ft 302 kts 265°
2026-04-20 13:54 6.30163 -58.15884 6322 ft 301 kts 265°
2026-04-20 13:54 6.29993 -58.17980 5970 ft 300 kts 265°
2026-04-20 13:54 6.29820 -58.20094 5637 ft 299 kts 265°
2026-04-20 13:55 6.29649 -58.22170 5316 ft 297 kts 265°
2026-04-20 13:55 6.29482 -58.24209 5005 ft 297 kts 265°
2026-04-20 13:55 6.29314 -58.26282 4696 ft 297 kts 265°
2026-04-20 13:55 6.29144 -58.28359 4303 ft 299 kts 265°
2026-04-20 13:56 6.28993 -58.30430 4059 ft 294 kts 270°
2026-04-20 13:56 6.29412 -58.32387 3903 ft 283 kts 296°
2026-04-20 13:56 6.30517 -58.33972 3697 ft 274 kts 316°
2026-04-20 13:56 6.31846 -58.35303 3510 ft 267 kts 317°
2026-04-20 13:57 6.33148 -58.36583 3412 ft 253 kts 317°
2026-04-20 13:57 6.34443 -58.37683 3289 ft 235 kts 337°
2026-04-20 13:57 6.35950 -58.37874 3214 ft 212 kts 18°
2026-04-20 13:57 6.37236 -58.37259 3038 ft 202 kts 30°
2026-04-20 13:58 6.38436 -58.36540 2794 ft 198 kts 38°
2026-04-20 13:58 6.39513 -58.35700 2550 ft 194 kts 41°
2026-04-20 13:58 6.40501 -58.34808 2301 ft 189 kts 46°
2026-04-20 13:58 6.41426 -58.33890 2054 ft 184 kts 46°
2026-04-20 13:59 6.42298 -58.33012 1841 ft 171 kts 46°
2026-04-20 13:59 6.43103 -58.32204 1651 ft 153 kts 48°
2026-04-20 13:59 6.43831 -58.31470 1437 ft 144 kts 49°
2026-04-20 13:59 6.44544 -58.30750 1233 ft 147 kts 47°
2026-04-20 14:00 6.45251 -58.30040 1067 ft 145 kts 47°
2026-04-20 14:00 6.45491 -58.29799 1003 ft 145 kts 46°
2026-04-20 14:00 6.45910 -58.29376 892 ft 144 kts 45°
2026-04-20 14:01 6.46621 -58.28664 734 ft 144 kts 47°
2026-04-20 14:01 6.47320 -58.27955 583 ft 140 kts 45°
2026-04-20 14:01 6.48013 -58.27262 371 ft 142 kts 46°
2026-04-20 14:01 6.48710 -58.26563 155 ft 141 kts 47°
2026-04-20 14:02 6.49363 -58.25907 106 ft 122 kts 47°
2026-04-20 14:02 6.49866 -58.25404 106 ft 81 kts 45°
2026-04-20 14:02 6.50159 -58.25110 104 ft 38 kts 45°
2026-04-20 14:02 6.50256 -58.25039 104 ft 8 kts 355°
2026-04-20 14:03 6.50297 -58.25068 104 ft 7 kts 315°
2026-04-20 14:03 6.50332 -58.25105 104 ft 7 kts 311°
2026-04-20 14:03 6.50359 -58.25140 104 ft 2 kts 288°
2026-04-20 14:03 6.50344 -58.25165 104 ft 5 kts 227°
2026-04-20 14:04 6.50306 -58.25204 104 ft 9 kts 225°
2026-04-20 14:04 6.50304 -58.25231 104 ft 3 kts 304°
2026-04-20 14:04 6.50321 -58.25249 103 ft 3 kts 313°
2026-04-20 14:04 6.50324 -58.25252 103 ft 0 kts 313°